,,,PA_Meas_PMT16A,,PR_Meas_QMR101_102,,RH_Meas_QMH101,,SR_Meas_QMS101,,TA_Meas_QMH101,,GenWind,,GenWind,
date,time,status,PA,status,PR,status,RH,status,SR,status,TA,status,DirAvg,status,SpdAvg,
2011-03-16, 00:00:04,VALID,1008.66,VALID,0,VALID,104,VALID,0,VALID,24.3176,VALID,40,VALID,0.744141,
2011-03-16, 00:01:04,VALID,1008.63,VALID,0,VALID,104,VALID,0,VALID,24.3176,VALID,52,VALID,0.383984,
2011-03-16, 00:02:04,VALID,1008.6,VALID,0,VALID,104,VALID,0,VALID,24.3176,VALID,52,VALID,0.334375,
2011-03-16, 00:03:04,VALID,1008.59,VALID,0,VALID,104,VALID,0,VALID,24.3176,VALID,52,VALID,0.391797,
2011-03-16, 00:04:04,VALID,1008.57,VALID,0,VALID,104,VALID,0,VALID,24.2573,VALID,48,VALID,0.596484,
2011-03-16, 00:05:04,VALID,1008.55,VALID,0,VALID,104,VALID,0,VALID,24.2768,VALID,41,VALID,0.551562,
2011-03-16, 00:06:04,VALID,1008.57,VALID,0,VALID,104,VALID,0,VALID,24.2786,VALID,55,VALID,0.426172,
2011-03-16, 00:07:04,VALID,1008.58,VALID,0,VALID,104,VALID,0,VALID,24.2591,VALID,55,VALID,0.292578,
2011-03-16, 00:08:04,VALID,1008.57,VALID,0,VALID,104,VALID,0.105969,VALID,24.2786,VALID,59,VALID,0.372266,
2011-03-16, 00:09:04,VALID,1008.57,VALID,0,VALID,104,VALID,0,VALID,24.2786,VALID,59,VALID,0.306641,
2011-03-16, 00:10:04,VALID,1008.53,VALID,0,VALID,104,VALID,0,VALID,24.2573,VALID,59,VALID,0.389453,
2011-03-16, 00:11:04,VALID,1008.48,VALID,0,VALID,104,VALID,0,VALID,24.2786,VALID,62,VALID,0.408203,
2011-03-16, 00:12:04,VALID,1008.48,VALID,0,VALID,104,VALID,0,VALID,24.2573,VALID,62,VALID,0.576563,
2011-03-16, 00:13:04,VALID,1008.45,VALID,0,VALID,104,VALID,0,VALID,24.2786,VALID,61,VALID,0.581641,
2011-03-16, 00:14:04,VALID,1008.43,VALID,0,VALID,104,VALID,0,VALID,24.2591,VALID,61,VALID,0.378906,
2011-03-16, 00:15:04,VALID,1008.41,VALID,0,VALID,104,VALID,0,VALID,24.2591,VALID,62,VALID,0.607422,
2011-03-16, 00:16:04,VALID,1008.43,VALID,0,VALID,104,VALID,0,VALID,24.2786,VALID,62,VALID,0.357812,
2011-03-16, 00:17:04,VALID,1008.41,VALID,0,VALID,104,VALID,0,VALID,24.2573,VALID,61,VALID,0.256641,
2011-03-16, 00:18:04,VALID,1008.42,VALID,0,VALID,104,VALID,0,VALID,24.2786,VALID,61,VALID,0.268359,
2011-03-16, 00:19:04,VALID,1008.41,VALID,0,VALID,104,VALID,0,VALID,24.2981,VALID,61,VALID,0.00585938,
2011-03-16, 00:20:04,VALID,1008.38,VALID,0,VALID,104,VALID,0,VALID,24.2786,VALID,61,VALID,0.124609,
2011-03-16, 00:21:04,VALID,1008.37,VALID,0,VALID,104,VALID,0,VALID,24.2786,VALID,61,VALID,0,
2011-03-16, 00:22:04,VALID,1008.38,VALID,0,VALID,104,VALID,0,VALID,24.2573,VALID,61,VALID,0,
2011-03-16, 00:23:04,VALID,1008.39,VALID,0,VALID,104,VALID,0,VALID,24.2573,VALID,61,VALID,0,
2011-03-16, 00:24:04,VALID,1008.38,VALID,0,VALID,104,VALID,0,VALID,24.2786,VALID,61,VALID,0,
2011-03-16, 00:25:04,VALID,1008.36,VALID,0,VALID,104,VALID,0,VALID,24.2573,VALID,61,VALID,0.0640625,
2011-03-16, 00:26:04,VALID,1008.37,VALID,0,VALID,104,VALID,0,VALID,24.2786,VALID,61,VALID,0.200391,
2011-03-16, 00:27:04,VALID,1008.36,VALID,0,VALID,104,VALID,0,VALID,24.2378,VALID,61,VALID,0,
2011-03-16, 00:28:04,VALID,1008.36,VALID,0,VALID,104,VALID,0.105969,VALID,24.2396,VALID,61,VALID,0.180078,
2011-03-16, 00:29:04,VALID,1008.39,VALID,0,VALID,104,VALID,0.105969,VALID,24.2396,VALID,61,VALID,0.158984,
2011-03-16, 00:30:04,VALID,1008.37,VALID,0,VALID,104,VALID,0,VALID,24.2396,VALID,61,VALID,0,
2011-03-16, 00:31:04,VALID,1008.35,VALID,0,VALID,104,VALID,0,VALID,24.2396,VALID,61,VALID,0,
2011-03-16, 00:32:04,VALID,1008.36,VALID,0,VALID,104,VALID,0,VALID,24.2396,VALID,61,VALID,0,
2011-03-16, 00:33:04,VALID,1008.35,VALID,0,VALID,104,VALID,0,VALID,24.2183,VALID,61,VALID,0,
2011-03-16, 00:34:04,VALID,1008.33,VALID,0,VALID,104,VALID,0,VALID,24.2396,VALID,61,VALID,0,
2011-03-16, 00:35:04,VALID,1008.29,VALID,0,VALID,104,VALID,0,VALID,24.2396,VALID,61,VALID,0,
2011-03-16, 00:36:04,VALID,1008.28,VALID,0,VALID,104,VALID,0,VALID,24.2396,VALID,61,VALID,0,
2011-03-16, 00:37:04,VALID,1008.26,VALID,0,VALID,104,VALID,0,VALID,24.2396,VALID,61,VALID,0,
2011-03-16, 00:38:04,VALID,1008.29,VALID,0,VALID,104,VALID,0,VALID,24.2202,VALID,61,VALID,0,
2011-03-16, 00:39:04,VALID,1008.26,VALID,0,VALID,104,VALID,0,VALID,24.2183,VALID,61,VALID,0,
2011-03-16, 00:40:04,VALID,1008.25,VALID,0,VALID,104,VALID,0.105969,VALID,24.2183,VALID,61,VALID,0,
2011-03-16, 00:41:04,VALID,1008.24,VALID,0,VALID,104,VALID,0,VALID,24.2396,VALID,61,VALID,0,
2011-03-16, 00:42:04,VALID,1008.22,VALID,0,VALID,104,VALID,0,VALID,24.2591,VALID,61,VALID,0,
2011-03-16, 00:43:04,VALID,1008.21,VALID,0,VALID,104,VALID,0,VALID,24.2591,VALID,61,VALID,0,
2011-03-16, 00:44:04,VALID,1008.18,VALID,0,VALID,104,VALID,0,VALID,24.2591,VALID,61,VALID,0,
2011-03-16, 00:45:04,VALID,1008.18,VALID,0,VALID,104,VALID,0,VALID,24.2378,VALID,61,VALID,0,
2011-03-16, 00:46:04,VALID,1008.17,VALID,0,VALID,104,VALID,0,VALID,24.2591,VALID,61,VALID,0,
2011-03-16, 00:47:04,VALID,1008.15,VALID,0,VALID,104,VALID,0,VALID,24.2378,VALID,61,VALID,0,
2011-03-16, 00:48:04,VALID,1008.15,VALID,0,VALID,104,VALID,0,VALID,24.2378,VALID,61,VALID,0,
2011-03-16, 00:49:04,VALID,1008.13,VALID,0,VALID,104,VALID,0,VALID,24.2591,VALID,61,VALID,0,
2011-03-16, 00:50:04,VALID,1008.14,VALID,0,VALID,104,VALID,0,VALID,24.2396,VALID,61,VALID,0,
2011-03-16, 00:51:04,VALID,1008.12,VALID,0,VALID,104,VALID,0,VALID,24.2396,VALID,61,VALID,0,
2011-03-16, 00:52:04,VALID,1008.11,VALID,0,VALID,104,VALID,0.105969,VALID,24.2183,VALID,61,VALID,0,
2011-03-16, 00:53:04,VALID,1008.11,VALID,0,VALID,104,VALID,0,VALID,24.2396,VALID,61,VALID,0,
2011-03-16, 00:54:04,VALID,1008.07,VALID,0,VALID,104,VALID,0,VALID,24.2591,VALID,61,VALID,0,
2011-03-16, 00:55:04,VALID,1008.04,VALID,0,VALID,104,VALID,0,VALID,24.2396,VALID,61,VALID,0,
2011-03-16, 00:56:04,VALID,1008.01,VALID,0,VALID,104,VALID,0,VALID,24.2396,VALID,61,VALID,0,
2011-03-16, 00:57:04,VALID,1008,VALID,0,VALID,104,VALID,0,VALID,24.2396,VALID,61,VALID,0,
2011-03-16, 00:58:04,VALID,1007.96,VALID,0,VALID,104,VALID,0,VALID,24.2396,VALID,61,VALID,0,
2011-03-16, 00:59:04,VALID,1007.93,VALID,0,VALID,104,VALID,0,VALID,24.2396,VALID,61,VALID,0,
2011-03-16, 01:00:04,VALID,1007.9,VALID,0,VALID,104,VALID,0.105969,VALID,24.2183,VALID,61,VALID,0.260547,
2011-03-16, 01:01:04,VALID,1007.9,VALID,0,VALID,104,VALID,0.105969,VALID,24.2183,VALID,61,VALID,0,
2011-03-16, 01:02:04,VALID,1007.88,VALID,0,VALID,104,VALID,0.105969,VALID,24.2396,VALID,61,VALID,0,
2011-03-16, 01:03:04,VALID,1007.87,VALID,0,VALID,104,VALID,0,VALID,24.2202,VALID,61,VALID,0,
2011-03-16, 01:04:04,VALID,1007.87,VALID,0,VALID,104,VALID,0,VALID,24.2202,VALID,61,VALID,0,
2011-03-16, 01:05:04,VALID,1007.85,VALID,0,VALID,104,VALID,0,VALID,24.1793,VALID,61,VALID,0,
2011-03-16, 01:06:04,VALID,1007.83,VALID,0,VALID,104,VALID,0,VALID,24.2007,VALID,61,VALID,0,
2011-03-16, 01:07:04,VALID,1007.82,VALID,0,VALID,104,VALID,0,VALID,24.1599,VALID,61,VALID,0,
2011-03-16, 01:08:04,VALID,1007.81,VALID,0,VALID,104,VALID,0,VALID,24.1599,VALID,61,VALID,0,
2011-03-16, 01:09:04,VALID,1007.79,VALID,0,VALID,104,VALID,0.105969,VALID,24.1599,VALID,61,VALID,0,
2011-03-16, 01:10:04,VALID,1007.78,VALID,0,VALID,104,VALID,0,VALID,24.1812,VALID,61,VALID,0,
2011-03-16, 01:11:04,VALID,1007.78,VALID,0,VALID,104,VALID,0.105969,VALID,24.1404,VALID,61,VALID,0,
2011-03-16, 01:12:04,VALID,1007.75,VALID,0,VALID,104,VALID,0.105969,VALID,24.1209,VALID,61,VALID,0,
2011-03-16, 01:13:04,VALID,1007.73,VALID,0,VALID,104,VALID,0,VALID,24.1422,VALID,61,VALID,0,
2011-03-16, 01:14:04,VALID,1007.72,VALID,0,VALID,104,VALID,0.105969,VALID,24.1404,VALID,61,VALID,0.135547,
2011-03-16, 01:15:04,VALID,1007.73,VALID,0,VALID,104,VALID,0,VALID,24.1617,VALID,61,VALID,0,
2011-03-16, 01:16:04,VALID,1007.73,VALID,0,VALID,104,VALID,0,VALID,24.1404,VALID,61,VALID,0.201953,
2011-03-16, 01:17:04,VALID,1007.72,VALID,0,VALID,104,VALID,0.105969,VALID,24.1404,VALID,61,VALID,0.304297,
2011-03-16, 01:18:04,VALID,1007.71,VALID,0,VALID,104,VALID,0.105969,VALID,24.1404,VALID,61,VALID,0.318359,
2011-03-16, 01:19:04,VALID,1007.71,VALID,0,VALID,104,VALID,0,VALID,24.1812,VALID,61,VALID,0.405469,
2011-03-16, 01:20:04,VALID,1007.71,VALID,0,VALID,104,VALID,0,VALID,24.1599,VALID,61,VALID,0.171094,
2011-03-16, 01:21:04,VALID,1007.7,VALID,0,VALID,104,VALID,0,VALID,24.2007,VALID,61,VALID,0.247656,
2011-03-16, 01:22:04,VALID,1007.69,VALID,0,VALID,104,VALID,0,VALID,24.1793,VALID,61,VALID,0.486328,
2011-03-16, 01:23:04,VALID,1007.69,VALID,0,VALID,104,VALID,0.105969,VALID,24.1793,VALID,61,VALID,0.554297,
2011-03-16, 01:24:04,VALID,1007.71,VALID,0,VALID,104,VALID,0.105969,VALID,24.1599,VALID,64,VALID,0.578516,
2011-03-16, 01:25:04,VALID,1007.7,VALID,0,VALID,104,VALID,0,VALID,24.1599,VALID,64,VALID,0.431641,
2011-03-16, 01:26:04,VALID,1007.73,VALID,0,VALID,104,VALID,0,VALID,24.1812,VALID,64,VALID,0.375391,
2011-03-16, 01:27:04,VALID,1007.7,VALID,0,VALID,104,VALID,0,VALID,24.1793,VALID,64,VALID,0.160547,
2011-03-16, 01:28:04,VALID,1007.71,VALID,0,VALID,104,VALID,0,VALID,24.1599,VALID,64,VALID,0.210156,
2011-03-16, 01:29:04,VALID,1007.71,VALID,0,VALID,104,VALID,0,VALID,24.1812,VALID,64,VALID,0.108984,
2011-03-16, 01:30:04,VALID,1007.68,VALID,0,VALID,104,VALID,0,VALID,24.1812,VALID,64,VALID,0,
2011-03-16, 01:31:04,VALID,1007.69,VALID,0,VALID,104,VALID,0,VALID,24.1404,VALID,64,VALID,0.390625,
2011-03-16, 01:32:04,VALID,1007.67,VALID,0,VALID,104,VALID,0,VALID,24.1404,VALID,64,VALID,0.653906,
2011-03-16, 01:33:04,VALID,1007.64,VALID,0,VALID,104,VALID,0.105969,VALID,24.1404,VALID,65,VALID,0.553125,
2011-03-16, 01:34:04,VALID,1007.64,VALID,0,VALID,104,VALID,0.105969,VALID,24.1599,VALID,65,VALID,0.455469,
2011-03-16, 01:35:04,VALID,1007.59,VALID,0,VALID,104,VALID,0,VALID,24.1617,VALID,65,VALID,0.239844,
2011-03-16, 01:36:04,VALID,1007.58,VALID,0,VALID,104,VALID,0,VALID,24.1599,VALID,65,VALID,0.299219,
2011-03-16, 01:37:04,VALID,1007.54,VALID,0,VALID,104,VALID,0.105969,VALID,24.1599,VALID,65,VALID,0.496875,
2011-03-16, 01:38:04,VALID,1007.53,VALID,0,VALID,104,VALID,0.105969,VALID,24.1812,VALID,65,VALID,0.315625,
2011-03-16, 01:39:04,VALID,1007.56,VALID,0,VALID,104,VALID,0.105969,VALID,24.1599,VALID,65,VALID,0.138281,
2011-03-16, 01:40:04,VALID,1007.52,VALID,0,VALID,104,VALID,0.105969,VALID,24.1599,VALID,65,VALID,0.205859,
2011-03-16, 01:41:04,VALID,1007.55,VALID,0,VALID,104,VALID,0.105969,VALID,24.1599,VALID,65,VALID,0,
2011-03-16, 01:42:04,VALID,1007.56,VALID,0,VALID,104,VALID,0.105969,VALID,24.1599,VALID,65,VALID,0,
2011-03-16, 01:43:04,VALID,1007.54,VALID,0,VALID,104,VALID,0.105969,VALID,24.1385,VALID,65,VALID,0,
2011-03-16, 01:44:04,VALID,1007.51,VALID,0,VALID,104,VALID,0,VALID,24.1617,VALID,65,VALID,0,
2011-03-16, 01:45:04,VALID,1007.53,VALID,0,VALID,104,VALID,0.105969,VALID,24.1404,VALID,65,VALID,0,
2011-03-16, 01:46:04,VALID,1007.54,VALID,0,VALID,104,VALID,0.105969,VALID,24.1599,VALID,65,VALID,0,
2011-03-16, 01:47:04,VALID,1007.52,VALID,0,VALID,104,VALID,0,VALID,24.1617,VALID,65,VALID,0,
2011-03-16, 01:48:04,VALID,1007.56,VALID,0,VALID,104,VALID,0.105969,VALID,24.1209,VALID,65,VALID,0,
2011-03-16, 01:49:04,VALID,1007.54,VALID,0,VALID,104,VALID,0.105969,VALID,24.1209,VALID,65,VALID,0,
2011-03-16, 01:50:04,VALID,1007.52,VALID,0,VALID,104,VALID,0.105969,VALID,24.1209,VALID,65,VALID,0,
2011-03-16, 01:51:04,VALID,1007.52,VALID,0,VALID,104,VALID,0.105969,VALID,24.1209,VALID,65,VALID,0,
2011-03-16, 01:52:04,VALID,1007.49,VALID,0,VALID,104,VALID,0.105969,VALID,24.0801,VALID,65,VALID,0,
2011-03-16, 01:53:04,VALID,1007.52,VALID,0,VALID,104,VALID,0.105969,VALID,24.1209,VALID,65,VALID,0,
2011-03-16, 01:54:04,VALID,1007.52,VALID,0,VALID,104,VALID,0,VALID,24.1227,VALID,65,VALID,0,
2011-03-16, 01:55:04,VALID,1007.5,VALID,0,VALID,104,VALID,0.105969,VALID,24.1014,VALID,65,VALID,0.371875,
2011-03-16, 01:56:04,VALID,1007.52,VALID,0,VALID,104,VALID,0.105969,VALID,24.1014,VALID,65,VALID,0.498047,
2011-03-16, 01:57:04,VALID,1007.51,VALID,0,VALID,104,VALID,0.105969,VALID,24.1014,VALID,65,VALID,0.354297,
2011-03-16, 01:58:04,VALID,1007.52,VALID,0,VALID,104,VALID,0.105969,VALID,24.0996,VALID,65,VALID,0.348437,
2011-03-16, 01:59:04,VALID,1007.51,VALID,0,VALID,104,VALID,0.105969,VALID,24.1422,VALID,65,VALID,0.180078,
2011-03-16, 02:00:04,VALID,1007.51,VALID,0,VALID,104,VALID,0.105969,VALID,24.1209,VALID,65,VALID,0,
2011-03-16, 02:01:04,VALID,1007.52,VALID,0,VALID,104,VALID,0.105969,VALID,24.1404,VALID,65,VALID,0,
2011-03-16, 02:02:04,VALID,1007.51,VALID,0,VALID,104,VALID,0.105969,VALID,24.1404,VALID,65,VALID,0.611719,
2011-03-16, 02:03:04,VALID,1007.51,VALID,0,VALID,104,VALID,0.105969,VALID,24.1404,VALID,81,VALID,0.866016,
2011-03-16, 02:04:04,VALID,1007.5,VALID,0,VALID,104,VALID,0.105969,VALID,24.1209,VALID,81,VALID,0.691406,
2011-03-16, 02:05:04,VALID,1007.5,VALID,0,VALID,104,VALID,0.105969,VALID,24.1209,VALID,83,VALID,0.740625,
2011-03-16, 02:06:04,VALID,1007.5,VALID,0,VALID,104,VALID,0.105969,VALID,24.1209,VALID,84,VALID,0.742188,
2011-03-16, 02:07:04,VALID,1007.51,VALID,0,VALID,104,VALID,0.105969,VALID,24.1014,VALID,85,VALID,0.736328,
2011-03-16, 02:08:04,VALID,1007.52,VALID,0,VALID,104,VALID,0,VALID,24.1227,VALID,85,VALID,0.751172,
2011-03-16, 02:09:04,VALID,1007.53,VALID,0,VALID,104,VALID,0,VALID,24.1209,VALID,85,VALID,0.402734,
2011-03-16, 02:10:04,VALID,1007.49,VALID,0,VALID,104,VALID,0,VALID,24.1209,VALID,85,VALID,0.678125,
2011-03-16, 02:11:04,VALID,1007.5,VALID,0,VALID,104,VALID,0,VALID,24.1422,VALID,85,VALID,0.189063,
2011-03-16, 02:12:04,VALID,1007.52,VALID,0,VALID,104,VALID,0,VALID,24.1014,VALID,85,VALID,0.296094,
2011-03-16, 02:13:04,VALID,1007.49,VALID,0,VALID,104,VALID,0,VALID,24.1014,VALID,85,VALID,0.245312,
2011-03-16, 02:14:04,VALID,1007.49,VALID,0,VALID,104,VALID,0,VALID,24.1014,VALID,85,VALID,0.178125,
2011-03-16, 02:15:04,VALID,1007.47,VALID,0,VALID,104,VALID,0,VALID,24.1032,VALID,85,VALID,0.198828,
2011-03-16, 02:16:04,VALID,1007.47,VALID,0,VALID,104,VALID,0,VALID,24.0819,VALID,85,VALID,0.462109,
2011-03-16, 02:17:04,VALID,1007.44,VALID,0,VALID,104,VALID,0,VALID,24.0819,VALID,85,VALID,0.391797,
2011-03-16, 02:18:04,VALID,1007.42,VALID,0,VALID,104,VALID,0,VALID,24.0819,VALID,85,VALID,0.354297,
2011-03-16, 02:19:04,VALID,1007.38,VALID,0,VALID,104,VALID,0,VALID,24.1032,VALID,80,VALID,0.683984,
2011-03-16, 02:20:04,VALID,1007.39,VALID,0,VALID,104,VALID,0,VALID,24.0624,VALID,80,VALID,0.203516,
2011-03-16, 02:21:04,VALID,1007.39,VALID,0,VALID,104,VALID,0,VALID,24.0624,VALID,80,VALID,0.341797,
2011-03-16, 02:22:04,VALID,1007.39,VALID,0,VALID,104,VALID,0,VALID,24.0643,VALID,80,VALID,0.212891,
2011-03-16, 02:23:04,VALID,1007.38,VALID,0,VALID,104,VALID,0,VALID,24.0429,VALID,80,VALID,0.229297,
2011-03-16, 02:24:04,VALID,1007.39,VALID,0,VALID,104,VALID,0,VALID,24.0643,VALID,80,VALID,0.0347656,
2011-03-16, 02:25:04,VALID,1007.38,VALID,0,VALID,104,VALID,0,VALID,24.0429,VALID,80,VALID,0,
2011-03-16, 02:26:04,VALID,1007.33,VALID,0,VALID,104,VALID,0,VALID,24.0448,VALID,80,VALID,0.247656,
2011-03-16, 02:27:04,VALID,1007.35,VALID,0,VALID,104,VALID,0,VALID,24.0253,VALID,80,VALID,0.129688,
2011-03-16, 02:28:04,VALID,1007.33,VALID,0,VALID,104,VALID,0,VALID,24.0253,VALID,80,VALID,0.199609,
2011-03-16, 02:29:04,VALID,1007.3,VALID,0,VALID,104,VALID,0,VALID,24.0253,VALID,80,VALID,0,
2011-03-16, 02:30:04,VALID,1007.3,VALID,0,VALID,104,VALID,0,VALID,23.9845,VALID,80,VALID,0,
2011-03-16, 02:31:04,VALID,1007.3,VALID,0,VALID,104,VALID,0,VALID,23.9863,VALID,80,VALID,0,
2011-03-16, 02:32:04,VALID,1007.31,VALID,0,VALID,104,VALID,0,VALID,23.9455,VALID,80,VALID,0,
2011-03-16, 02:33:04,VALID,1007.31,VALID,0,VALID,104,VALID,0,VALID,23.9455,VALID,80,VALID,0,
2011-03-16, 02:34:04,VALID,1007.3,VALID,0,VALID,104,VALID,0,VALID,23.9668,VALID,80,VALID,0,
2011-03-16, 02:35:04,VALID,1007.32,VALID,0,VALID,104,VALID,0,VALID,23.9473,VALID,80,VALID,0,
2011-03-16, 02:36:04,VALID,1007.3,VALID,0,VALID,104,VALID,0,VALID,23.9278,VALID,80,VALID,0,
2011-03-16, 02:37:04,VALID,1007.29,VALID,0,VALID,104,VALID,0,VALID,23.9065,VALID,80,VALID,0,
2011-03-16, 02:38:04,VALID,1007.29,VALID,0,VALID,104,VALID,0,VALID,23.9278,VALID,80,VALID,0,
2011-03-16, 02:39:04,VALID,1007.27,VALID,0,VALID,104,VALID,0,VALID,23.9065,VALID,80,VALID,0,
2011-03-16, 02:40:04,VALID,1007.22,VALID,0,VALID,104,VALID,0,VALID,23.9065,VALID,80,VALID,0,
2011-03-16, 02:41:04,VALID,1007.18,VALID,0,VALID,104,VALID,0,VALID,23.9084,VALID,80,VALID,0,
2011-03-16, 02:42:04,VALID,1007.17,VALID,0,VALID,104,VALID,0,VALID,23.9065,VALID,80,VALID,0,
2011-03-16, 02:43:04,VALID,1007.14,VALID,0,VALID,104,VALID,0,VALID,23.9065,VALID,80,VALID,0,
2011-03-16, 02:44:04,VALID,1007.12,VALID,0,VALID,104,VALID,0,VALID,23.9084,VALID,80,VALID,0.147656,
2011-03-16, 02:45:04,VALID,1007.11,VALID,0,VALID,104,VALID,0,VALID,23.9278,VALID,80,VALID,0.163281,
2011-03-16, 02:46:04,VALID,1007.1,VALID,0,VALID,104,VALID,0,VALID,23.9278,VALID,80,VALID,0.301953,
2011-03-16, 02:47:04,VALID,1007.13,VALID,0,VALID,104,VALID,0,VALID,23.9065,VALID,80,VALID,0.442578,
2011-03-16, 02:48:04,VALID,1007.1,VALID,0,VALID,104,VALID,0,VALID,23.926,VALID,80,VALID,0.399219,
2011-03-16, 02:49:04,VALID,1007.07,VALID,0,VALID,104,VALID,0,VALID,23.9278,VALID,80,VALID,0.462109,
2011-03-16, 02:50:04,VALID,1007.11,VALID,0,VALID,104,VALID,0,VALID,23.9065,VALID,80,VALID,0.408594,
2011-03-16, 02:51:04,VALID,1007.13,VALID,0,VALID,104,VALID,0,VALID,23.9065,VALID,80,VALID,0.391016,
2011-03-16, 02:52:04,VALID,1007.11,VALID,0,VALID,104,VALID,0,VALID,23.9065,VALID,80,VALID,0.114453,
2011-03-16, 02:53:04,VALID,1007.1,VALID,0,VALID,104,VALID,0,VALID,23.9065,VALID,80,VALID,0.186328,
2011-03-16, 02:54:04,VALID,1007.11,VALID,0,VALID,104,VALID,0,VALID,23.9473,VALID,80,VALID,0.271484,
2011-03-16, 02:55:04,VALID,1007.06,VALID,0,VALID,104,VALID,0,VALID,23.926,VALID,81,VALID,0.529688,
2011-03-16, 02:56:04,VALID,1007.05,VALID,0,VALID,104,VALID,0,VALID,23.926,VALID,81,VALID,0.528906,
2011-03-16, 02:57:05,VALID,1007.04,VALID,0,VALID,104,VALID,0,VALID,23.9065,VALID,81,VALID,0.490234,
2011-03-16, 02:58:05,VALID,1007.04,VALID,0,VALID,104,VALID,0,VALID,23.9084,VALID,81,VALID,0.519922,
2011-03-16, 02:59:05,VALID,1007.05,VALID,0,VALID,104,VALID,0,VALID,23.8676,VALID,85,VALID,0.638672,
2011-03-16, 03:00:05,VALID,1007.01,VALID,0,VALID,104,VALID,0,VALID,23.8676,VALID,88,VALID,0.344531,
2011-03-16, 03:01:05,VALID,1007,VALID,0,VALID,104,VALID,0.105969,VALID,23.8676,VALID,88,VALID,0.266406,
2011-03-16, 03:02:05,VALID,1006.99,VALID,0,VALID,104,VALID,0,VALID,23.8676,VALID,88,VALID,0,
2011-03-16, 03:03:05,VALID,1006.98,VALID,0,VALID,104,VALID,0.105969,VALID,23.8676,VALID,88,VALID,0,
2011-03-16, 03:04:05,VALID,1006.97,VALID,0,VALID,104,VALID,0,VALID,23.8871,VALID,88,VALID,0,
2011-03-16, 03:05:05,VALID,1006.95,VALID,0,VALID,104,VALID,0,VALID,23.8889,VALID,88,VALID,0,
2011-03-16, 03:06:05,VALID,1006.97,VALID,0,VALID,104,VALID,0,VALID,23.8676,VALID,88,VALID,0,
2011-03-16, 03:07:05,VALID,1006.97,VALID,0,VALID,104,VALID,0,VALID,23.8889,VALID,88,VALID,0,
2011-03-16, 03:08:05,VALID,1006.95,VALID,0,VALID,104,VALID,0,VALID,23.8694,VALID,88,VALID,0,
2011-03-16, 03:09:05,VALID,1006.95,VALID,0,VALID,104,VALID,0,VALID,23.8889,VALID,88,VALID,0,
2011-03-16, 03:10:05,VALID,1006.91,VALID,0,VALID,104,VALID,0,VALID,23.8694,VALID,88,VALID,0,
2011-03-16, 03:11:05,VALID,1006.92,VALID,0,VALID,104,VALID,0,VALID,23.8889,VALID,88,VALID,0,
2011-03-16, 03:12:05,VALID,1006.89,VALID,0,VALID,104,VALID,0,VALID,23.8889,VALID,88,VALID,0,
2011-03-16, 03:13:05,VALID,1006.89,VALID,0,VALID,104,VALID,0,VALID,23.8694,VALID,88,VALID,0,
2011-03-16, 03:14:05,VALID,1006.88,VALID,0,VALID,104,VALID,0,VALID,23.8889,VALID,88,VALID,0,
2011-03-16, 03:15:05,VALID,1006.86,VALID,0,VALID,104,VALID,0,VALID,23.9102,VALID,88,VALID,0,
2011-03-16, 03:16:05,VALID,1006.84,VALID,0,VALID,104,VALID,0,VALID,23.9102,VALID,88,VALID,0.136328,
2011-03-16, 03:17:05,VALID,1006.83,VALID,0,VALID,104,VALID,0,VALID,23.8694,VALID,88,VALID,0.408984,
2011-03-16, 03:18:05,VALID,1006.85,VALID,0,VALID,104,VALID,0,VALID,23.8889,VALID,88,VALID,0.490234,
2011-03-16, 03:19:05,VALID,1006.85,VALID,0,VALID,104,VALID,0,VALID,23.8889,VALID,88,VALID,0.463281,
2011-03-16, 03:20:05,VALID,1006.83,VALID,0,VALID,104,VALID,0,VALID,23.8889,VALID,87,VALID,0.547656,
2011-03-16, 03:21:05,VALID,1006.85,VALID,0,VALID,104,VALID,0,VALID,23.9084,VALID,61,VALID,0.724219,
2011-03-16, 03:22:05,VALID,1006.88,VALID,0,VALID,104,VALID,0,VALID,23.9084,VALID,63,VALID,0.333203,
2011-03-16, 03:23:05,VALID,1006.88,VALID,0,VALID,104,VALID,0,VALID,23.9102,VALID,63,VALID,0.175391,
2011-03-16, 03:24:05,VALID,1006.88,VALID,0,VALID,104,VALID,0,VALID,23.8889,VALID,63,VALID,0.196094,
2011-03-16, 03:25:05,VALID,1006.91,VALID,0,VALID,104,VALID,0,VALID,23.8889,VALID,63,VALID,0.00976563,
2011-03-16, 03:26:05,VALID,1006.9,VALID,0,VALID,104,VALID,0,VALID,23.8694,VALID,63,VALID,0,
2011-03-16, 03:27:05,VALID,1006.9,VALID,0,VALID,104,VALID,0,VALID,23.8499,VALID,63,VALID,0.265234,
2011-03-16, 03:28:05,VALID,1006.93,VALID,0,VALID,104,VALID,0,VALID,23.8712,VALID,63,VALID,0,
2011-03-16, 03:29:05,VALID,1006.93,VALID,0,VALID,104,VALID,0,VALID,23.8712,VALID,63,VALID,0,
2011-03-16, 03:30:05,VALID,1006.94,VALID,0,VALID,104,VALID,0,VALID,23.8499,VALID,63,VALID,0,
2011-03-16, 03:31:05,VALID,1006.97,VALID,0,VALID,104,VALID,0,VALID,23.8517,VALID,63,VALID,0,
2011-03-16, 03:32:05,VALID,1006.94,VALID,0,VALID,104,VALID,0,VALID,23.8322,VALID,63,VALID,0,
2011-03-16, 03:33:05,VALID,1006.97,VALID,0,VALID,104,VALID,0,VALID,23.8304,VALID,63,VALID,0.398438,
2011-03-16, 03:34:05,VALID,1006.95,VALID,0,VALID,104,VALID,0,VALID,23.8304,VALID,63,VALID,0.377344,
2011-03-16, 03:35:05,VALID,1006.96,VALID,0,VALID,104,VALID,0,VALID,23.8304,VALID,63,VALID,0.245703,
2011-03-16, 03:36:05,VALID,1006.97,VALID,0,VALID,104,VALID,0,VALID,23.8304,VALID,63,VALID,0,
2011-03-16, 03:37:05,VALID,1006.97,VALID,0,VALID,104,VALID,0,VALID,23.8304,VALID,63,VALID,0.406641,
2011-03-16, 03:38:05,VALID,1006.95,VALID,0,VALID,104,VALID,0,VALID,23.8499,VALID,63,VALID,0.486328,
2011-03-16, 03:39:05,VALID,1006.94,VALID,0,VALID,104,VALID,0,VALID,23.8286,VALID,63,VALID,0.345703,
2011-03-16, 03:40:05,VALID,1006.93,VALID,0,VALID,104,VALID,0.105969,VALID,23.8091,VALID,63,VALID,0.278125,
2011-03-16, 03:41:05,VALID,1006.94,VALID,0,VALID,104,VALID,0.105969,VALID,23.8091,VALID,63,VALID,0,
2011-03-16, 03:42:05,VALID,1006.95,VALID,0,VALID,104,VALID,0.105969,VALID,23.8091,VALID,63,VALID,0.0148437,
2011-03-16, 03:43:05,VALID,1006.96,VALID,0,VALID,104,VALID,0.105969,VALID,23.8091,VALID,63,VALID,0,
2011-03-16, 03:44:05,VALID,1006.97,VALID,0,VALID,104,VALID,0.105969,VALID,23.7896,VALID,63,VALID,0,
2011-03-16, 03:45:05,VALID,1006.98,VALID,0,VALID,104,VALID,0,VALID,23.8109,VALID,63,VALID,0,
2011-03-16, 03:46:05,VALID,1007,VALID,0,VALID,104,VALID,0.105969,VALID,23.7896,VALID,63,VALID,0,
2011-03-16, 03:47:05,VALID,1007,VALID,0,VALID,104,VALID,0,VALID,23.8109,VALID,63,VALID,0.671094,
2011-03-16, 03:48:05,VALID,1007.02,VALID,0,VALID,104,VALID,0,VALID,23.8304,VALID,63,VALID,0.495703,
2011-03-16, 03:49:05,VALID,1007.03,VALID,0,VALID,104,VALID,0.105969,VALID,23.8091,VALID,63,VALID,0.510547,
2011-03-16, 03:50:05,VALID,1007.05,VALID,0,VALID,104,VALID,0.105969,VALID,23.8304,VALID,63,VALID,0.136328,
2011-03-16, 03:51:05,VALID,1007.06,VALID,0,VALID,104,VALID,0,VALID,23.8304,VALID,63,VALID,0,
2011-03-16, 03:52:05,VALID,1007.12,VALID,0,VALID,104,VALID,0.105969,VALID,23.8091,VALID,63,VALID,0,
2011-03-16, 03:53:05,VALID,1007.11,VALID,0,VALID,104,VALID,0.105969,VALID,23.8286,VALID,63,VALID,0,
2011-03-16, 03:54:05,VALID,1007.14,VALID,0,VALID,104,VALID,0,VALID,23.8499,VALID,63,VALID,0,
2011-03-16, 03:55:05,VALID,1007.15,VALID,0,VALID,104,VALID,0,VALID,23.8499,VALID,63,VALID,0,
2011-03-16, 03:56:05,VALID,1007.14,VALID,0,VALID,104,VALID,0.105969,VALID,23.8286,VALID,63,VALID,0.292969,
2011-03-16, 03:57:05,VALID,1007.14,VALID,0,VALID,104,VALID,0,VALID,23.8499,VALID,63,VALID,0.150391,
2011-03-16, 03:58:05,VALID,1007.15,VALID,0,VALID,104,VALID,0.105969,VALID,23.8286,VALID,63,VALID,0,